Terug naar catalogus

COSMOS 1011

ActiefMilitairPO
NORAD 10917·PAYLOAD·🇷🇺 Russia

Gelanceerd May 23, 1978 vanaf Plesetsk Cosmodrome

Loading…

Volgende Passages (komende 24 uur)

TLE

VersSource: Space-Track

Epoch: Sep 14, 2026, 07:05 UTC

1 10917U 78053A   26257.29534690  .00000050  00000-0  35500-4 0  9993
2 10917  82.9215  11.8952 0037871  73.0298 316.1632 13.75532079424181

Volg COSMOS 1011 in realtime met AllMySat

Download on the App Store